EST,Max TemperatureF,Mean TemperatureF,Min TemperatureF,Max Dew PointF,MeanDew PointF,Min DewpointF,Max Humidity, Mean Humidity, Min Humidity, Max Sea Level PressureIn, Mean Sea Level PressureIn, Min Sea Level PressureIn, Max VisibilityMiles, Mean VisibilityMiles, Min VisibilityMiles, Max Wind SpeedMPH, Mean Wind SpeedMPH, Max Gust SpeedMPH,PrecipitationIn, CloudCover, Events, WindDirDegrees
2013-2-1,32,22,12,30,11,3,92,72,52,30.45,30.29,29.95,10,8,1,29,7,38,0.01,5,Snow,299
2013-2-2,36,27,18,30,24,13,89,73,57,30.37,30.14,30.01,10,7,1,14,6,20,0.02,8,Snow,220
2013-2-3,33,31,29,31,28,21,92,81,69,30.17,30.02,29.95,10,6,1,18,8,25,0.03,8,Snow,256
2013-2-4,50,36,22,28,24,20,96,68,39,30.14,30.02,29.90,10,9,6,15,5,20,0.00,3,,202
2013-2-5,52,46,39,36,32,27,70,59,48,30.04,29.94,29.89,10,10,10,18,7,22,T,5,Rain,233
2013-2-6,53,40,26,32,28,21,92,62,32,30.23,30.17,30.06,10,9,5,9,2,13,0.00,0,,325
2013-2-7,58,47,36,41,32,27,82,57,32,30.15,30.05,29.91,10,10,10,10,2,15,T,3,,178
2013-2-8,48,41,34,45,36,25,100,85,70,30.32,30.06,29.85,10,9,3,17,7,23,0.12,8,Rain,310
2013-2-9,50,40,29,25,22,19,72,52,31,30.39,30.31,30.21,10,10,10,9,4,13,0.00,2,,49
2013-2-10,58,45,32,45,32,20,89,57,24,30.21,30.08,29.90,10,9,2,15,5,27,0.20,5,Rain,168
2013-2-11,57,46,35,52,39,22,93,61,28,30.13,29.99,29.90,10,10,10,22,10,30,0.03,3,Rain,233
2013-2-12,51,40,29,31,26,22,92,62,32,30.19,30.07,29.89,10,10,10,8,1,10,0.00,1,,290
2013-2-13,44,37,29,36,31,26,92,71,49,29.99,29.83,29.70,10,8,2,15,5,21,0.11,7,Rain,330
2013-2-14,55,42,28,35,30,27,100,69,38,30.04,30.00,29.94,10,8,2,20,5,23,0.00,3,,205
2013-2-15,40,34,28,36,30,21,100,82,64,30.14,30.08,30.01,10,10,6,16,3,23,0.01,6,Rain-Snow,333
2013-2-16,33,28,23,23,16,5,81,62,42,30.14,30.07,30.02,10,8,1,20,7,28,T,3,Snow,321
2013-2-17,37,28,18,15,11,8,74,53,32,30.27,30.21,30.14,10,10,10,17,6,23,0.00,3,,283
2013-2-18,57,39,21,31,21,13,77,55,32,30.25,30.11,29.88,10,10,10,29,9,41,0.00,1,,174
2013-2-19,52,41,29,39,29,15,92,64,35,30.17,29.95,29.85,10,10,5,28,13,35,0.23,5,Rain,241
2013-2-20,35,27,19,15,13,11,73,56,38,30.29,30.25,30.17,10,10,10,15,6,18,0.00,0,,301
2013-2-21,44,32,20,30,18,13,82,58,33,30.31,30.19,30.06,10,10,5,12,5,16,0.23,2,Rain,58
2013-2-22,58,46,33,46,43,32,96,79,62,30.00,29.97,29.91,10,10,6,18,8,26,0.14,6,Rain,200
2013-2-23,51,43,34,44,38,27,93,75,56,29.99,29.94,29.88,10,10,10,10,4,14,0.00,5,,283
2013-2-24,50,38,25,27,23,19,88,60,31,30.12,30.07,29.97,10,10,7,13,3,15,0.00,0,,336
2013-2-25,57,42,27,26,23,21,75,51,27,30.10,29.99,29.82,10,10,10,12,5,15,0.00,1,,61
2013-2-26,56,48,39,48,40,26,83,64,45,29.77,29.54,29.39,10,9,2,30,11,38,0.32,7,Rain,182
2013-2-27,40,37,33,36,32,30,92,81,70,29.85,29.77,29.64,10,9,3,22,10,28,0.07,8,Rain-Snow,235
2013-2-28,33,32,30,31,28,25,92,84,75,30.00,29.87,29.79,10,7,2,18,10,24,0.03,8,Snow,265